FW4339 Weather Reports


Display with metric or nautical units.
time (UTC)temp
F
wind
direction
speed
MPH
gust
MPH
rain 1hr
in
rain 24hr
in
rain mn
in
humidity
%
barometer
mb
20240225214510 58 0.0 0.0 0.00 0.00 0.00 82 1017.4
20240225213010 58 0.0 0.0 0.00 0.00 0.00 81 1017.4
20240225211508 58 0.0 0.0 0.00 0.00 0.00 80 1017.4
20240225210015 58 0.0 0.0 0.00 0.00 0.00 80 1017.7
20240225204507 59 0.0 0.0 0.00 0.00 0.00 80 1017.9
20240225203006 58 0.0 0.0 0.00 0.00 0.00 79 1018.1
20240225201505 59 0.0 0.0 0.00 0.00 0.00 78 1018.1
20240225200005 59 0.0 0.0 0.00 0.00 0.00 78 1018.2
20240225194505 58 0.0 0.0 0.00 0.00 0.00 77 1018.2
20240225193004 59 0.0 0.0 0.00 0.00 0.00 76 1018.2
20240225191503 58 0.0 0.0 0.00 0.00 0.00 73 1018.9
20240225190002 59 0.0 0.0 0.00 0.00 0.00 72 1018.9
20240225184602 59 0.0 0.0 0.00 0.00 0.00 71 1019.2
20240225183057 59 0.0 0.0 0.00 0.00 0.00 69 1019.3
20240225181600 59 0.0 0.0 0.00 0.00 0.00 68 1019.4
20240225180050 60 0.0 0.0 0.00 0.00 0.00 68 1019.6
20240225174550 60 0.0 0.0 0.00 0.00 0.00 70 1019.6
20240225173046 60 0.0 0.0 0.00 0.00 0.00 71 1020.0
20240225171546 60 0.0 0.0 0.00 0.00 0.00 72 1020.2
20240225170049 60 0.0 0.0 0.00 0.00 0.00 74 1020.3
20240225164548 60 0.0 0.0 0.00 0.00 0.00 75 1020.4
20240225163042 60 0.0 0.0 0.00 0.00 0.00 76 1020.6
20240225161541 59 0.0 0.0 0.00 0.00 0.00 77 1020.5
20240225160040 59 0.0 0.0 0.00 0.00 0.00 78 1020.6
20240225154538 60 0.0 0.0 0.00 0.00 0.00 79 1020.8
20240225153039 60 0.0 0.0 0.00 0.00 0.00 79 1020.8
20240225151541 59 0.0 0.0 0.00 0.00 0.00 81 1020.9
20240225150039 60 0.0 0.0 0.00 0.00 0.00 81 1021.0
20240225144534 60 0.0 0.0 0.00 0.00 0.00 81 1021.2
20240225143030 60 0.0 0.0 0.00 0.00 0.00 80 1021.4
20240225141533 60 0.0 0.0 0.00 0.00 0.00 81 1021.6
20240225140028 61 0.0 0.0 0.00 0.00 0.00 80 1021.9
20240225134522 61 0.0 0.0 0.00 0.00 0.00 78 1022.1
20240225133020 61 0.0 0.0 0.00 0.00 0.00 77 1022.1
20240225131519 62 0.0 0.0 0.00 0.00 0.00 75 1022.2
20240225130037 63 0.0 0.0 0.00 0.00 0.00 75 1022.4
20240225124516 63 0.0 0.0 0.00 0.00 0.00 75 1022.6
20240225123019 63 0.0 0.0 0.00 0.00 0.00 74 1022.8
20240225121515 63 0.0 0.0 0.00 0.00 0.00 74 1023.1
20240225120014 63 0.0 0.0 0.00 0.00 0.00 73 1023.3
20240225114511 63 0.0 0.0 0.00 0.00 0.00 74 1023.5
20240225113028 63 0.0 0.0 0.00 0.00 0.00 75 1023.8
20240225111508 62 0.0 0.0 0.00 0.00 0.00 79 1024.1
20240225110007 60 0.0 0.0 0.00 0.00 0.00 81 1024.3
20240225104506 60 0.0 0.0 0.00 0.00 0.00 82 1024.5
20240225103005 61 0.0 0.0 0.00 0.00 0.00 83 1024.7
20240225101502 61 0.0 0.0 0.00 0.00 0.00 82 1025.1
20240225100058 62 0.0 0.0 0.00 0.00 0.00 82 1025.3
20240225094556 62 0.0 0.0 0.00 0.00 0.00 84 1025.6
20240225093053 61 0.0 0.0 0.00 0.00 0.00 85 1025.8
20240225091556 60 0.0 0.0 0.00 0.00 0.00 87 1026.0
20240225090055 60 0.0 0.0 0.00 0.00 0.00 86 1026.3
20240225084601 59 0.0 0.0 0.00 0.00 0.00 87 1026.2
20240225083105 59 0.0 0.0 0.00 0.00 0.00 88 1026.2
20240225081552 60 0.0 0.0 0.00 0.00 0.00 89 1026.3
20240225080049 60 0.0 0.0 0.00 0.00 0.00 91 1026.4
20240225074545 59 0.0 0.0 0.00 0.00 0.00 92 1026.6
20240225073044 58 0.0 0.0 0.00 0.00 0.00 92 1026.7
20240225071546 58 0.0 0.0 0.00 0.00 0.00 92 1026.7
20240225070044 58 0.0 0.0 0.00 0.00 0.00 93 1026.9
20240225064548 57 0.0 0.0 0.00 0.00 0.00 93 1026.9
20240225063044 57 0.0 0.0 0.00 0.00 0.00 94 1026.9
20240225061551 57 0.0 0.0 0.00 0.00 0.00 94 1026.9
20240225060052 57 0.0 0.0 0.00 0.00 0.00 93 1026.8
20240225054551 56 0.0 0.0 0.00 0.00 0.00 94 1026.9
20240225053037 0 0.0 0.0 0.00 0.00 0.00 1026.8
20240225051532 0 0.0 0.0 0.00 0.00 0.00 1026.8
20240225050029 0 0.0 0.0 0.00 0.00 0.00 1026.9
20240225044524 0 0.0 0.0 0.00 0.00 0.00 1026.8
20240225043021 0 0.0 0.0 0.00 0.00 0.00 1026.9
20240225041516 56 0.0 0.0 0.00 0.00 0.00 93 1026.9
20240225040015 56 0.0 0.0 0.00 0.00 0.00 93 1027.1
20240225034532 57 0.0 0.0 0.00 0.00 0.00 93 1026.8
20240225033013 57 0.0 0.0 0.00 0.00 0.00 93 1026.9
20240225031513 56 0.0 0.0 0.00 0.00 0.00 93 1027.1
20240225030015 56 0.0 0.0 0.00 0.00 0.00 93 1027.1
20240225024522 56 0.0 0.0 0.00 0.00 0.00 93 1027.0
20240225023010 56 0.0 0.0 0.00 0.00 0.00 93 1027.2
20240225021509 56 0.0 0.0 0.00 0.00 0.00 93 1027.2
20240225020009 56 0.0 0.0 0.00 0.00 0.00 93 1027.4
20240225014507 56 0.0 0.0 0.00 0.00 0.00 93 1027.3
20240225013006 57 0.0 0.0 0.00 0.00 0.00 93 1027.6
20240225011606 57 0.0 0.0 0.00 0.00 0.00 93 1027.6
20240225010004 57 0.0 0.0 0.00 0.00 0.00 92 1027.9
20240225004504 57 0.0 0.0 0.00 0.00 0.00 92 1027.8
20240225003003 57 0.0 0.0 0.00 0.00 0.00 92 1028.0
20240225001503 57 0.0 0.0 0.00 0.00 0.00 92 1028.0
20240225000004 57 0.0 0.0 0.00 0.00 0.00 92 1028.0
20240224234503 57 0.0 0.0 0.00 0.00 0.00 91 1028.1
20240224233004 57 0.0 0.0 0.00 0.00 0.00 91 1028.4
20240224231503 57 0.0 0.0 0.00 0.00 0.00 91 1028.5
20240224230005 57 0.0 0.0 0.00 0.00 0.00 91 1028.6
20240224224503 57 0.0 0.0 0.00 0.00 0.00 91 1028.6
20240224223003 57 0.0 0.0 0.00 0.00 0.00 91 1028.8
20240224221504 57 0.0 0.0 0.00 0.00 0.00 91 1028.8
20240224220003 57 0.0 0.0 0.00 0.00 0.00 91 1028.8